Netzbetreibername:;EVI Energieversorgung Hildesheim GmbH & Co. KG;;;;;
Lastgangtyp:;Prognoselastgang der Netzverluste;;;;;
gesetzliche Grundlage:;� 17 Abs. 2 Nr. 3 StromNZV;;;;;
Einheit:;kW;;;;;
Betrachtungszeitraum:;01.01.2021 bis 31.12.2021;;;;;
;;;;;;
H�chstlasttag und Uhrzeit: ;20.01.2021 18:00;;;;;
H�chstlast in kW:;3.003;;;;;
Jahresarbeit in kWh:;11.143.930;;;;;
;gesamte Netzverluste;;;;;
01.01.2021 00:15;790;;;;;
01.01.2021 00:30;791;;;;;
01.01.2021 00:45;778;;;;;
01.01.2021 01:00;759;;;;;
01.01.2021 01:15;744;;;;;
01.01.2021 01:30;730;;;;;
01.01.2021 01:45;707;;;;;
01.01.2021 02:00;692;;;;;
01.01.2021 02:15;672;;;;;
01.01.2021 02:30;665;;;;;
01.01.2021 02:45;656;;;;;
01.01.2021 03:00;637;;;;;
01.01.2021 03:15;616;;;;;
01.01.2021 03:30;614;;;;;
01.01.2021 03:45;596;;;;;
01.01.2021 04:00;575;;;;;
01.01.2021 04:15;563;;;;;
01.01.2021 04:30;550;;;;;
01.01.2021 04:45;527;;;;;
01.01.2021 05:00;493;;;;;
01.01.2021 05:15;436;;;;;
01.01.2021 05:30;409;;;;;
01.01.2021 05:45;406;;;;;
01.01.2021 06:00;407;;;;;
01.01.2021 06:15;415;;;;;
01.01.2021 06:30;419;;;;;
01.01.2021 06:45;429;;;;;
01.01.2021 07:00;441;;;;;
01.01.2021 07:15;466;;;;;
01.01.2021 07:30;474;;;;;
01.01.2021 07:45;496;;;;;
01.01.2021 08:00;503;;;;;
01.01.2021 08:15;500;;;;;
01.01.2021 08:30;536;;;;;
01.01.2021 08:45;560;;;;;
01.01.2021 09:00;600;;;;;
01.01.2021 09:15;654;;;;;
01.01.2021 09:30;713;;;;;
01.01.2021 09:45;755;;;;;
01.01.2021 10:00;804;;;;;
01.01.2021 10:15;861;;;;;
01.01.2021 10:30;937;;;;;
01.01.2021 10:45;979;;;;;
01.01.2021 11:00;1037;;;;;
01.01.2021 11:15;1107;;;;;
01.01.2021 11:30;1182;;;;;
01.01.2021 11:45;1251;;;;;
01.01.2021 12:00;1292;;;;;
01.01.2021 12:15;1291;;;;;
01.01.2021 12:30;1295;;;;;
01.01.2021 12:45;1275;;;;;
01.01.2021 13:00;1284;;;;;
01.01.2021 13:15;1238;;;;;
01.01.2021 13:30;1216;;;;;
01.01.2021 13:45;1200;;;;;
01.01.2021 14:00;1198;;;;;
01.01.2021 14:15;1168;;;;;
01.01.2021 14:30;1116;;;;;
01.01.2021 14:45;1114;;;;;
01.01.2021 15:00;1090;;;;;
01.01.2021 15:15;1108;;;;;
01.01.2021 15:30;1106;;;;;
01.01.2021 15:45;1146;;;;;
01.01.2021 16:00;1150;;;;;
01.01.2021 16:15;1209;;;;;
01.01.2021 16:30;1290;;;;;
01.01.2021 16:45;1428;;;;;
01.01.2021 17:00;1530;;;;;
01.01.2021 17:15;1692;;;;;
01.01.2021 17:30;1788;;;;;
01.01.2021 17:45;1841;;;;;
01.01.2021 18:00;1843;;;;;
01.01.2021 18:15;1878;;;;;
01.01.2021 18:30;1882;;;;;
01.01.2021 18:45;1900;;;;;
01.01.2021 19:00;1867;;;;;
01.01.2021 19:15;1839;;;;;
01.01.2021 19:30;1808;;;;;
01.01.2021 19:45;1712;;;;;
01.01.2021 20:00;1651;;;;;
01.01.2021 20:15;1612;;;;;
01.01.2021 20:30;1543;;;;;
01.01.2021 20:45;1454;;;;;
01.01.2021 21:00;1407;;;;;
01.01.2021 21:15;1530;;;;;
01.01.2021 21:30;1522;;;;;
01.01.2021 21:45;1458;;;;;
01.01.2021 22:00;1438;;;;;
01.01.2021 22:15;1350;;;;;
01.01.2021 22:30;1264;;;;;
01.01.2021 22:45;1168;;;;;
01.01.2021 23:00;1089;;;;;
01.01.2021 23:15;1009;;;;;
01.01.2021 23:30;945;;;;;
01.01.2021 23:45;861;;;;;
02.01.2021 00:00;798;;;;;
02.01.2021 00:15;948,5;;;;;
02.01.2021 00:30;881;;;;;
02.01.2021 00:45;827,5;;;;;
02.01.2021 01:00;791,25;;;;;
02.01.2021 01:15;759,5;;;;;
02.01.2021 01:30;732;;;;;
02.01.2021 01:45;701;;;;;
02.01.2021 02:00;685;;;;;
02.01.2021 02:15;672;;;;;
02.01.2021 02:30;659,75;;;;;
02.01.2021 02:45;651,5;;;;;
02.01.2021 03:00;647,5;;;;;
02.01.2021 03:15;651,75;;;;;
02.01.2021 03:30;648,75;;;;;
02.01.2021 03:45;644;;;;;
02.01.2021 04:00;642,5;;;;;
02.01.2021 04:15;640;;;;;
02.01.2021 04:30;636,25;;;;;
02.01.2021 04:45;619,75;;;;;
02.01.2021 05:00;603,25;;;;;
02.01.2021 05:15;558;;;;;
02.01.2021 05:30;543,75;;;;;
02.01.2021 05:45;557,25;;;;;
02.01.2021 06:00;586;;;;;
02.01.2021 06:15;638;;;;;
02.01.2021 06:30;674,5;;;;;
02.01.2021 06:45;712,75;;;;;
02.01.2021 07:00;759,75;;;;;
02.01.2021 07:15;844,5;;;;;
02.01.2021 07:30;914;;;;;
02.01.2021 07:45;992,75;;;;;
02.01.2021 08:00;1083;;;;;
02.01.2021 08:15;1164,5;;;;;
02.01.2021 08:30;1258,75;;;;;
02.01.2021 08:45;1375,75;;;;;
02.01.2021 09:00;1475,25;;;;;
02.01.2021 09:15;1567;;;;;
02.01.2021 09:30;1663,75;;;;;
02.01.2021 09:45;1731,75;;;;;
02.01.2021 10:00;1801,75;;;;;
02.01.2021 10:15;1866;;;;;
02.01.2021 10:30;1874,75;;;;;
02.01.2021 10:45;1910,5;;;;;
02.01.2021 11:00;1922;;;;;
02.01.2021 11:15;1963,5;;;;;
02.01.2021 11:30;2005,75;;;;;
02.01.2021 11:45;2012,75;;;;;
02.01.2021 12:00;2006,75;;;;;
02.01.2021 12:15;1996;;;;;
02.01.2021 12:30;1998,75;;;;;
02.01.2021 12:45;1984,75;;;;;
02.01.2021 13:00;1937,25;;;;;
02.01.2021 13:15;1887;;;;;
02.01.2021 13:30;1848;;;;;
02.01.2021 13:45;1808,25;;;;;
02.01.2021 14:00;1768,25;;;;;
02.01.2021 14:15;1725,25;;;;;
02.01.2021 14:30;1716,5;;;;;
02.01.2021 14:45;1714;;;;;
02.01.2021 15:00;1700,5;;;;;
02.01.2021 15:15;1694,5;;;;;
02.01.2021 15:30;1715;;;;;
02.01.2021 15:45;1747;;;;;
02.01.2021 16:00;1747,5;;;;;
02.01.2021 16:15;1768,75;;;;;
02.01.2021 16:30;1813;;;;;
02.01.2021 16:45;1883,75;;;;;
02.01.2021 17:00;1994,25;;;;;
02.01.2021 17:15;2134,5;;;;;
02.01.2021 17:30;2236;;;;;
02.01.2021 17:45;2355;;;;;
02.01.2021 18:00;2420;;;;;
02.01.2021 18:15;2413,5;;;;;
02.01.2021 18:30;2378;;;;;
02.01.2021 18:45;2352,5;;;;;
02.01.2021 19:00;2308,25;;;;;
02.01.2021 19:15;2268;;;;;
02.01.2021 19:30;2210,75;;;;;
02.01.2021 19:45;2143;;;;;
02.01.2021 20:00;2078,5;;;;;
02.01.2021 20:15;1964,25;;;;;
02.01.2021 20:30;1798;;;;;
02.01.2021 20:45;1693,5;;;;;
02.01.2021 21:00;1660,25;;;;;
02.01.2021 21:15;1774,5;;;;;
02.01.2021 21:30;1764;;;;;
02.01.2021 21:45;1682,25;;;;;
02.01.2021 22:00;1635,5;;;;;
02.01.2021 22:15;1552,5;;;;;
02.01.2021 22:30;1454;;;;;
02.01.2021 22:45;1374,25;;;;;
02.01.2021 23:00;1302,25;;;;;
02.01.2021 23:15;1200,5;;;;;
02.01.2021 23:30;1130,5;;;;;
02.01.2021 23:45;1056,25;;;;;
03.01.2021 00:00;985,25;;;;;
03.01.2021 00:15;912,75;;;;;
03.01.2021 00:30;848,75;;;;;
03.01.2021 00:45;791;;;;;
03.01.2021 01:00;751;;;;;
03.01.2021 01:15;719,5;;;;;
03.01.2021 01:30;694,75;;;;;
03.01.2021 01:45;663,5;;;;;
03.01.2021 02:00;643,5;;;;;
03.01.2021 02:15;634,25;;;;;
03.01.2021 02:30;619,5;;;;;
03.01.2021 02:45;608,75;;;;;
03.01.2021 03:00;604,5;;;;;
03.01.2021 03:15;601,5;;;;;
03.01.2021 03:30;600;;;;;
03.01.2021 03:45;597,75;;;;;
03.01.2021 04:00;597;;;;;
03.01.2021 04:15;592,25;;;;;
03.01.2021 04:30;575,25;;;;;
03.01.2021 04:45;565,25;;;;;
03.01.2021 05:00;539;;;;;
03.01.2021 05:15;489,25;;;;;
03.01.2021 05:30;460;;;;;
03.01.2021 05:45;462,75;;;;;
03.01.2021 06:00;469,5;;;;;
03.01.2021 06:15;491,75;;;;;
03.01.2021 06:30;508;;;;;
03.01.2021 06:45;530,75;;;;;
03.01.2021 07:00;556,25;;;;;
03.01.2021 07:15;598;;;;;
03.01.2021 07:30;642,75;;;;;
03.01.2021 07:45;695,5;;;;;
03.01.2021 08:00;726;;;;;
03.01.2021 08:15;799,5;;;;;
03.01.2021 08:30;885,25;;;;;
03.01.2021 08:45;956;;;;;
03.01.2021 09:00;1042,5;;;;;
03.01.2021 09:15;1125,5;;;;;
03.01.2021 09:30;1223,25;;;;;
03.01.2021 09:45;1283,25;;;;;
03.01.2021 10:00;1334;;;;;
03.01.2021 10:15;1413,25;;;;;
03.01.2021 10:30;1483,5;;;;;
03.01.2021 10:45;1529,5;;;;;
03.01.2021 11:00;1579,25;;;;;
03.01.2021 11:15;1624;;;;;
03.01.2021 11:30;1690,75;;;;;
03.01.2021 11:45;1769;;;;;
03.01.2021 12:00;1799,25;;;;;
03.01.2021 12:15;1805,5;;;;;
03.01.2021 12:30;1806,5;;;;;
03.01.2021 12:45;1776;;;;;
03.01.2021 13:00;1731;;;;;
03.01.2021 13:15;1661,25;;;;;
03.01.2021 13:30;1628;;;;;
03.01.2021 13:45;1584;;;;;
03.01.2021 14:00;1540,75;;;;;
03.01.2021 14:15;1496,25;;;;;
03.01.2021 14:30;1469;;;;;
03.01.2021 14:45;1454,75;;;;;
03.01.2021 15:00;1433,75;;;;;
03.01.2021 15:15;1419;;;;;
03.01.2021 15:30;1415,25;;;;;
03.01.2021 15:45;1400,25;;;;;
03.01.2021 16:00;1403,25;;;;;
03.01.2021 16:15;1432;;;;;
03.01.2021 16:30;1473,75;;;;;
03.01.2021 16:45;1547,5;;;;;
03.01.2021 17:00;1651;;;;;
03.01.2021 17:15;1775;;;;;
03.01.2021 17:30;1939,5;;;;;
03.01.2021 17:45;2058,75;;;;;
03.01.2021 18:00;2112,75;;;;;
03.01.2021 18:15;2186,25;;;;;
03.01.2021 18:30;2176,75;;;;;
03.01.2021 18:45;2170,5;;;;;
03.01.2021 19:00;2150;;;;;
03.01.2021 19:15;2089,5;;;;;
03.01.2021 19:30;2057,25;;;;;
03.01.2021 19:45;2004,25;;;;;
03.01.2021 20:00;1922,25;;;;;
03.01.2021 20:15;1849;;;;;
03.01.2021 20:30;1743,5;;;;;
03.01.2021 20:45;1648,25;;;;;
03.01.2021 21:00;1590,25;;;;;
03.01.2021 21:15;1713,75;;;;;
03.01.2021 21:30;1713,5;;;;;
03.01.2021 21:45;1645,75;;;;;
03.01.2021 22:00;1620,5;;;;;
03.01.2021 22:15;1512,75;;;;;
03.01.2021 22:30;1388,25;;;;;
03.01.2021 22:45;1309;;;;;
03.01.2021 23:00;1221,75;;;;;
03.01.2021 23:15;1114,5;;;;;
03.01.2021 23:30;1031,5;;;;;
03.01.2021 23:45;958,25;;;;;
04.01.2021 00:00;887,25;;;;;
04.01.2021 00:15;745;;;;;
04.01.2021 00:30;703;;;;;
04.01.2021 00:45;663;;;;;
04.01.2021 01:00;630;;;;;
04.01.2021 01:15;614;;;;;
04.01.2021 01:30;596;;;;;
04.01.2021 01:45;578;;;;;
04.01.2021 02:00;570;;;;;
04.01.2021 02:15;565;;;;;
04.01.2021 02:30;554;;;;;
04.01.2021 02:45;546;;;;;
04.01.2021 03:00;542;;;;;
04.01.2021 03:15;546;;;;;
04.01.2021 03:30;546;;;;;
04.01.2021 03:45;549;;;;;
04.01.2021 04:00;556;;;;;
04.01.2021 04:15;570;;;;;
04.01.2021 04:30;574;;;;;
04.01.2021 04:45;571;;;;;
04.01.2021 05:00;566;;;;;
04.01.2021 05:15;554;;;;;
04.01.2021 05:30;563;;;;;
04.01.2021 05:45;612;;;;;
04.01.2021 06:00;679;;;;;
04.01.2021 06:15;792;;;;;
04.01.2021 06:30;894;;;;;
04.01.2021 06:45;983;;;;;
04.01.2021 07:00;1089;;;;;
04.01.2021 07:15;1225;;;;;
04.01.2021 07:30;1332;;;;;
04.01.2021 07:45;1472;;;;;
04.01.2021 08:00;1590;;;;;
04.01.2021 08:15;1622;;;;;
04.01.2021 08:30;1681;;;;;
04.01.2021 08:45;1768;;;;;
04.01.2021 09:00;1872;;;;;
04.01.2021 09:15;1935;;;;;
04.01.2021 09:30;2007;;;;;
04.01.2021 09:45;2061;;;;;
04.01.2021 10:00;2109;;;;;
04.01.2021 10:15;2183;;;;;
04.01.2021 10:30;2269;;;;;
04.01.2021 10:45;2285;;;;;
04.01.2021 11:00;2315;;;;;
04.01.2021 11:15;2329;;;;;
04.01.2021 11:30;2359;;;;;
04.01.2021 11:45;2359;;;;;
04.01.2021 12:00;2413;;;;;
04.01.2021 12:15;2405;;;;;
04.01.2021 12:30;2398;;;;;
04.01.2021 12:45;2401;;;;;
04.01.2021 13:00;2381;;;;;
04.01.2021 13:15;2362;;;;;
04.01.2021 13:30;2315;;;;;
04.01.2021 13:45;2266;;;;;
04.01.2021 14:00;2216;;;;;
04.01.2021 14:15;2166;;;;;
04.01.2021 14:30;2176;;;;;
04.01.2021 14:45;2156;;;;;
04.01.2021 15:00;2098;;;;;
04.01.2021 15:15;2102;;;;;
04.01.2021 15:30;2077;;;;;
04.01.2021 15:45;2047;;;;;
04.01.2021 16:00;2045;;;;;
04.01.2021 16:15;2111;;;;;
04.01.2021 16:30;2190;;;;;
04.01.2021 16:45;2284;;;;;
04.01.2021 17:00;2394;;;;;
04.01.2021 17:15;2579;;;;;
04.01.2021 17:30;2642;;;;;
04.01.2021 17:45;2669;;;;;
04.01.2021 18:00;2701;;;;;
04.01.2021 18:15;2687;;;;;
04.01.2021 18:30;2619;;;;;
04.01.2021 18:45;2617;;;;;
04.01.2021 19:00;2626;;;;;
04.01.2021 19:15;2547;;;;;
04.01.2021 19:30;2491;;;;;
04.01.2021 19:45;2408;;;;;
04.01.2021 20:00;2295;;;;;
04.01.2021 20:15;2169;;;;;
04.01.2021 20:30;2023;;;;;
04.01.2021 20:45;1866;;;;;
04.01.2021 21:00;1818;;;;;
04.01.2021 21:15;1915;;;;;
04.01.2021 21:30;1888;;;;;
04.01.2021 21:45;1812;;;;;
04.01.2021 22:00;1743;;;;;
04.01.2021 22:15;1651;;;;;
04.01.2021 22:30;1504;;;;;
04.01.2021 22:45;1374;;;;;
04.01.2021 23:00;1273;;;;;
04.01.2021 23:15;1168;;;;;
04.01.2021 23:30;1065;;;;;
04.01.2021 23:45;991;;;;;
05.01.2021 00:00;925;;;;;
05.01.2021 00:15;845;;;;;
05.01.2021 00:30;780;;;;;
05.01.2021 00:45;729;;;;;
05.01.2021 01:00;696;;;;;
05.01.2021 01:15;677;;;;;
05.01.2021 01:30;654;;;;;
05.01.2021 01:45;645;;;;;
05.01.2021 02:00;630;;;;;
05.01.2021 02:15;624;;;;;
05.01.2021 02:30;626;;;;;
05.01.2021 02:45;626;;;;;
05.01.2021 03:00;622;;;;;
05.01.2021 03:15;613;;;;;
05.01.2021 03:30;619;;;;;
05.01.2021 03:45;612;;;;;
05.01.2021 04:00;621;;;;;
05.01.2021 04:15;632;;;;;
05.01.2021 04:30;633;;;;;
05.01.2021 04:45;636;;;;;
05.01.2021 05:00;638;;;;;
05.01.2021 05:15;626;;;;;
05.01.2021 05:30;627;;;;;
05.01.2021 05:45;675;;;;;
05.01.2021 06:00;745;;;;;
05.01.2021 06:15;873;;;;;
05.01.2021 06:30;988;;;;;
05.01.2021 06:45;1054;;;;;
05.01.2021 07:00;1182;;;;;
05.01.2021 07:15;1314;;;;;
05.01.2021 07:30;1429;;;;;
05.01.2021 07:45;1563;;;;;
05.01.2021 08:00;1671;;;;;
05.01.2021 08:15;1720;;;;;
05.01.2021 08:30;1783;;;;;
05.01.2021 08:45;1821;;;;;
05.01.2021 09:00;1902;;;;;
05.01.2021 09:15;2011;;;;;
05.01.2021 09:30;2059;;;;;
05.01.2021 09:45;2083;;;;;
05.01.2021 10:00;2127;;;;;
05.01.2021 10:15;2204;;;;;
05.01.2021 10:30;2244;;;;;
05.01.2021 10:45;2294;;;;;
05.01.2021 11:00;2307;;;;;
05.01.2021 11:15;2322;;;;;
05.01.2021 11:30;2378;;;;;
05.01.2021 11:45;2429;;;;;
05.01.2021 12:00;2438;;;;;
05.01.2021 12:15;2488;;;;;
05.01.2021 12:30;2518;;;;;
05.01.2021 12:45;2520;;;;;
05.01.2021 13:00;2470;;;;;
05.01.2021 13:15;2426;;;;;
05.01.2021 13:30;2383;;;;;
05.01.2021 13:45;2337;;;;;
05.01.2021 14:00;2235;;;;;
05.01.2021 14:15;2253;;;;;
05.01.2021 14:30;2250;;;;;
05.01.2021 14:45;2248;;;;;
05.01.2021 15:00;2215;;;;;
05.01.2021 15:15;2159;;;;;
05.01.2021 15:30;2173;;;;;
05.01.2021 15:45;2144;;;;;
05.01.2021 16:00;2169;;;;;
05.01.2021 16:15;2260;;;;;
05.01.2021 16:30;2370;;;;;
05.01.2021 16:45;2440;;;;;
05.01.2021 17:00;2570;;;;;
05.01.2021 17:15;2641;;;;;
05.01.2021 17:30;2757;;;;;
05.01.2021 17:45;2771;;;;;
05.01.2021 18:00;2821;;;;;
05.01.2021 18:15;2772;;;;;
05.01.2021 18:30;2746;;;;;
05.01.2021 18:45;2700;;;;;
05.01.2021 19:00;2670;;;;;
05.01.2021 19:15;2593;;;;;
05.01.2021 19:30;2496;;;;;
05.01.2021 19:45;2413;;;;;
05.01.2021 20:00;2326;;;;;
05.01.2021 20:15;2196;;;;;
05.01.2021 20:30;1998;;;;;
05.01.2021 20:45;1917;;;;;
05.01.2021 21:00;1874;;;;;
05.01.2021 21:15;1947;;;;;
05.01.2021 21:30;1908;;;;;
05.01.2021 21:45;1827;;;;;
05.01.2021 22:00;1760;;;;;
05.01.2021 22:15;1617;;;;;
05.01.2021 22:30;1484;;;;;
05.01.2021 22:45;1408;;;;;
05.01.2021 23:00;1281;;;;;
05.01.2021 23:15;1168;;;;;
05.01.2021 23:30;1063;;;;;
05.01.2021 23:45;989;;;;;
06.01.2021 00:00;920;;;;;
06.01.2021 00:15;830;;;;;
06.01.2021 00:30;776;;;;;
06.01.2021 00:45;740;;;;;
06.01.2021 01:00;698;;;;;
06.01.2021 01:15;678;;;;;
06.01.2021 01:30;656;;;;;
06.01.2021 01:45;632;;;;;
06.01.2021 02:00;623;;;;;
06.01.2021 02:15;605;;;;;
06.01.2021 02:30;598;;;;;
06.01.2021 02:45;603;;;;;
06.01.2021 03:00;603;;;;;
06.01.2021 03:15;606;;;;;
06.01.2021 03:30;605;;;;;
06.01.2021 03:45;603;;;;;
06.01.2021 04:00;617;;;;;
06.01.2021 04:15;627;;;;;
06.01.2021 04:30;634;;;;;
06.01.2021 04:45;645;;;;;
06.01.2021 05:00;646;;;;;
06.01.2021 05:15;633;;;;;
06.01.2021 05:30;638;;;;;
06.01.2021 05:45;699;;;;;
06.01.2021 06:00;759;;;;;
06.01.2021 06:15;907;;;;;
06.01.2021 06:30;1034;;;;;
06.01.2021 06:45;1126;;;;;
06.01.2021 07:00;1236;;;;;
06.01.2021 07:15;1381;;;;;
06.01.2021 07:30;1537;;;;;
06.01.2021 07:45;1639;;;;;
06.01.2021 08:00;1759;;;;;
06.01.2021 08:15;1799;;;;;
06.01.2021 08:30;1856;;;;;
06.01.2021 08:45;1903;;;;;
06.01.2021 09:00;1990;;;;;
06.01.2021 09:15;2023;;;;;
06.01.2021 09:30;2102;;;;;
06.01.2021 09:45;2183;;;;;
06.01.2021 10:00;2199;;;;;
06.01.2021 10:15;2191;;;;;
06.01.2021 10:30;2234;;;;;
06.01.2021 10:45;2360;;;;;
06.01.2021 11:00;2402;;;;;
06.01.2021 11:15;2367;;;;;
06.01.2021 11:30;2334;;;;;
06.01.2021 11:45;2418;;;;;
06.01.2021 12:00;2499;;;;;
06.01.2021 12:15;2536;;;;;
06.01.2021 12:30;2522;;;;;
06.01.2021 12:45;2498;;;;;
06.01.2021 13:00;2489;;;;;
06.01.2021 13:15;2470;;;;;
06.01.2021 13:30;2439;;;;;
06.01.2021 13:45;2470;;;;;
06.01.2021 14:00;2482;;;;;
06.01.2021 14:15;2437;;;;;
06.01.2021 14:30;2407;;;;;
06.01.2021 14:45;2328;;;;;
06.01.2021 15:00;2312;;;;;
06.01.2021 15:15;2234;;;;;
06.01.2021 15:30;2217;;;;;
06.01.2021 15:45;2204;;;;;
06.01.2021 16:00;2237;;;;;
06.01.2021 16:15;2253;;;;;
06.01.2021 16:30;2323;;;;;
06.01.2021 16:45;2431;;;;;
06.01.2021 17:00;2514;;;;;
06.01.2021 17:15;2684;;;;;
06.01.2021 17:30;2746;;;;;
06.01.2021 17:45;2806;;;;;
06.01.2021 18:00;2854;;;;;
06.01.2021 18:15;2771;;;;;
06.01.2021 18:30;2743;;;;;
06.01.2021 18:45;2676;;;;;
06.01.2021 19:00;2706;;;;;
06.01.2021 19:15;2599;;;;;
06.01.2021 19:30;2491;;;;;
06.01.2021 19:45;2379;;;;;
06.01.2021 20:00;2313;;;;;
06.01.2021 20:15;2183;;;;;
06.01.2021 20:30;2020;;;;;
06.01.2021 20:45;1923;;;;;
06.01.2021 21:00;1904;;;;;
06.01.2021 21:15;1993;;;;;
06.01.2021 21:30;1951;;;;;
06.01.2021 21:45;1861;;;;;
06.01.2021 22:00;1806;;;;;
06.01.2021 22:15;1679;;;;;
06.01.2021 22:30;1568;;;;;
06.01.2021 22:45;1439;;;;;
06.01.2021 23:00;1321;;;;;
06.01.2021 23:15;1197;;;;;
06.01.2021 23:30;1122;;;;;
06.01.2021 23:45;1024;;;;;
07.01.2021 00:00;958;;;;;
07.01.2021 00:15;883;;;;;
07.01.2021 00:30;841;;;;;
07.01.2021 00:45;789;;;;;
07.01.2021 01:00;753;;;;;
07.01.2021 01:15;730;;;;;
07.01.2021 01:30;714;;;;;
07.01.2021 01:45;693;;;;;
07.01.2021 02:00;679;;;;;
07.01.2021 02:15;666;;;;;
07.01.2021 02:30;654;;;;;
07.01.2021 02:45;641;;;;;
07.01.2021 03:00;635;;;;;
07.01.2021 03:15;640;;;;;
07.01.2021 03:30;651;;;;;
07.01.2021 03:45;641;;;;;
07.01.2021 04:00;644;;;;;
07.01.2021 04:15;664;;;;;
07.01.2021 04:30;682;;;;;
07.01.2021 04:45;689;;;;;
07.01.2021 05:00;680;;;;;
07.01.2021 05:15;660;;;;;
07.01.2021 05:30;668;;;;;
07.01.2021 05:45;708;;;;;
07.01.2021 06:00;790;;;;;
07.01.2021 06:15;941;;;;;
07.01.2021 06:30;1079;;;;;
07.01.2021 06:45;1155;;;;;
07.01.2021 07:00;1297;;;;;
07.01.2021 07:15;1431;;;;;
07.01.2021 07:30;1568;;;;;
07.01.2021 07:45;1723;;;;;
07.01.2021 08:00;1822;;;;;
07.01.2021 08:15;1846;;;;;
07.01.2021 08:30;1907;;;;;
07.01.2021 08:45;1945;;;;;
07.01.2021 09:00;1978;;;;;
07.01.2021 09:15;2039;;;;;
07.01.2021 09:30;2084;;;;;
07.01.2021 09:45;2171;;;;;
07.01.2021 10:00;2170;;;;;
07.01.2021 10:15;2230;;;;;
07.01.2021 10:30;2230;;;;;
07.01.2021 10:45;2263;;;;;
07.01.2021 11:00;2273;;;;;
07.01.2021 11:15;2318;;;;;
07.01.2021 11:30;2366;;;;;
07.01.2021 11:45;2367;;;;;
07.01.2021 12:00;2387;;;;;
07.01.2021 12:15;2336;;;;;
07.01.2021 12:30;2415;;;;;
07.01.2021 12:45;2442;;;;;
07.01.2021 13:00;2395;;;;;
07.01.2021 13:15;2346;;;;;
07.01.2021 13:30;2299;;;;;
07.01.2021 13:45;2292;;;;;
07.01.2021 14:00;2242;;;;;
07.01.2021 14:15;2194;;;;;
07.01.2021 14:30;2254;;;;;
07.01.2021 14:45;2268;;;;;
07.01.2021 15:00;2228;;;;;
07.01.2021 15:15;2229;;;;;
07.01.2021 15:30;2193;;;;;
07.01.2021 15:45;2170;;;;;
07.01.2021 16:00;2212;;;;;
07.01.2021 16:15;2298;;;;;
07.01.2021 16:30;2366;;;;;
07.01.2021 16:45;2472;;;;;
07.01.2021 17:00;2566;;;;;
07.01.2021 17:15;2725;;;;;
07.01.2021 17:30;2791;;;;;
07.01.2021 17:45;2870;;;;;
07.01.2021 18:00;2876;;;;;
07.01.2021 18:15;2854;;;;;
07.01.2021 18:30;2854;;;;;
07.01.2021 18:45;2852;;;;;
07.01.2021 19:00;2823;;;;;
07.01.2021 19:15;2646;;;;;
07.01.2021 19:30;2540;;;;;
07.01.2021 19:45;2453;;;;;
07.01.2021 20:00;2385;;;;;
07.01.2021 20:15;2236;;;;;
07.01.2021 20:30;2122;;;;;
07.01.2021 20:45;2020;;;;;
07.01.2021 21:00;1967;;;;;
07.01.2021 21:15;2069;;;;;
07.01.2021 21:30;2030;;;;;
07.01.2021 21:45;1925;;;;;
07.01.2021 22:00;1893;;;;;
07.01.2021 22:15;1763;;;;;
07.01.2021 22:30;1652;;;;;
07.01.2021 22:45;1531;;;;;
07.01.2021 23:00;1411;;;;;
07.01.2021 23:15;1305;;;;;
07.01.2021 23:30;1241;;;;;
07.01.2021 23:45;1155;;;;;
08.01.2021 00:00;1070;;;;;
08.01.2021 00:15;975;;;;;
08.01.2021 00:30;928;;;;;
08.01.2021 00:45;873;;;;;
08.01.2021 01:00;840;;;;;
08.01.2021 01:15;818;;;;;
08.01.2021 01:30;791;;;;;
08.01.2021 01:45;775;;;;;
08.01.2021 02:00;756;;;;;
08.01.2021 02:15;732;;;;;
08.01.2021 02:30;720;;;;;
08.01.2021 02:45;716;;;;;
08.01.2021 03:00;710;;;;;
08.01.2021 03:15;718;;;;;
08.01.2021 03:30;714;;;;;
08.01.2021 03:45;715;;;;;
08.01.2021 04:00;719;;;;;
08.01.2021 04:15;738;;;;;
08.01.2021 04:30;735;;;;;
08.01.2021 04:45;731;;;;;
08.01.2021 05:00;720;;;;;
08.01.2021 05:15;691;;;;;
08.01.2021 05:30;707;;;;;
08.01.2021 05:45;750;;;;;
08.01.2021 06:00;825;;;;;
08.01.2021 06:15;974;;;;;
08.01.2021 06:30;1086;;;;;
08.01.2021 06:45;1211;;;;;
08.01.2021 07:00;1311;;;;;
08.01.2021 07:15;1469;;;;;
08.01.2021 07:30;1588;;;;;
08.01.2021 07:45;1767;;;;;
08.01.2021 08:00;1838;;;;;
08.01.2021 08:15;1881;;;;;
08.01.2021 08:30;1976;;;;;
08.01.2021 08:45;2008;;;;;
08.01.2021 09:00;2037;;;;;
08.01.2021 09:15;2122;;;;;
08.01.2021 09:30;2176;;;;;
08.01.2021 09:45;2203;;;;;
08.01.2021 10:00;2251;;;;;
08.01.2021 10:15;2263;;;;;
08.01.2021 10:30;2242;;;;;
08.01.2021 10:45;2272;;;;;
08.01.2021 11:00;2312;;;;;
08.01.2021 11:15;2304;;;;;
08.01.2021 11:30;2338;;;;;
08.01.2021 11:45;2352;;;;;
08.01.2021 12:00;2384;;;;;
08.01.2021 12:15;2374;;;;;
08.01.2021 12:30;2374;;;;;
08.01.2021 12:45;2320;;;;;
08.01.2021 13:00;2326;;;;;
08.01.2021 13:15;2241;;;;;
08.01.2021 13:30;2177;;;;;
08.01.2021 13:45;2178;;;;;
08.01.2021 14:00;2135;;;;;
08.01.2021 14:15;2087;;;;;
08.01.2021 14:30;2057;;;;;
08.01.2021 14:45;2046;;;;;
08.01.2021 15:00;2047;;;;;
08.01.2021 15:15;2037;;;;;
08.01.2021 15:30;2031;;;;;
08.01.2021 15:45;2049;;;;;
08.01.2021 16:00;2068;;;;;
08.01.2021 16:15;2123;;;;;
08.01.2021 16:30;2216;;;;;
08.01.2021 16:45;2347;;;;;
08.01.2021 17:00;2477;;;;;
08.01.2021 17:15;2646;;;;;
08.01.2021 17:30;2782;;;;;
08.01.2021 17:45;2835;;;;;
08.01.2021 18:00;2887;;;;;
08.01.2021 18:15;2834;;;;;
08.01.2021 18:30;2808;;;;;
08.01.2021 18:45;2760;;;;;
08.01.2021 19:00;2733;;;;;
08.01.2021 19:15;2622;;;;;
08.01.2021 19:30;2504;;;;;
08.01.2021 19:45;2398;;;;;
08.01.2021 20:00;2328;;;;;
08.01.2021 20:15;2211;;;;;
08.01.2021 20:30;2062;;;;;
08.01.2021 20:45;1972;;;;;
08.01.2021 21:00;1927;;;;;
08.01.2021 21:15;2106;;;;;
08.01.2021 21:30;2067;;;;;
08.01.2021 21:45;1981;;;;;
08.01.2021 22:00;1881;;;;;
08.01.2021 22:15;1760;;;;;
08.01.2021 22:30;1661;;;;;
08.01.2021 22:45;1601;;;;;
08.01.2021 23:00;1520;;;;;
08.01.2021 23:15;1400;;;;;
08.01.2021 23:30;1294;;;;;
08.01.2021 23:45;1215;;;;;
09.01.2021 00:00;1133;;;;;
09.01.2021 00:15;1041;;;;;
09.01.2021 00:30;967;;;;;
09.01.2021 00:45;920;;;;;
09.01.2021 01:00;874;;;;;
09.01.2021 01:15;833;;;;;
09.01.2021 01:30;801;;;;;
09.01.2021 01:45;763;;;;;
09.01.2021 02:00;737;;;;;
09.01.2021 02:15;718;;;;;
09.01.2021 02:30;703;;;;;
09.01.2021 02:45;688;;;;;
09.01.2021 03:00;680;;;;;
09.01.2021 03:15;682;;;;;
09.01.2021 03:30;681;;;;;
09.01.2021 03:45;671;;;;;
09.01.2021 04:00;664;;;;;
09.01.2021 04:15;662;;;;;
09.01.2021 04:30;652;;;;;
09.01.2021 04:45;620;;;;;
09.01.2021 05:00;612;;;;;
09.01.2021 05:15;571;;;;;
09.01.2021 05:30;550;;;;;
09.01.2021 05:45;567;;;;;
09.01.2021 06:00;587;;;;;
09.01.2021 06:15;643;;;;;
09.01.2021 06:30;678;;;;;
09.01.2021 06:45;714;;;;;
09.01.2021 07:00;747;;;;;
09.01.2021 07:15;834;;;;;
09.01.2021 07:30;903;;;;;
09.01.2021 07:45;988;;;;;
09.01.2021 08:00;1082;;;;;
09.01.2021 08:15;1138;;;;;
09.01.2021 08:30;1205;;;;;
09.01.2021 08:45;1337;;;;;
09.01.2021 09:00;1438;;;;;
09.01.2021 09:15;1516;;;;;
09.01.2021 09:30;1608;;;;;
09.01.2021 09:45;1725;;;;;
09.01.2021 10:00;1808;;;;;
09.01.2021 10:15;1880;;;;;
09.01.2021 10:30;1946;;;;;
09.01.2021 10:45;1977;;;;;
09.01.2021 11:00;2029;;;;;
09.01.2021 11:15;2089;;;;;
09.01.2021 11:30;2169;;;;;
09.01.2021 11:45;2196;;;;;
09.01.2021 12:00;2200;;;;;
09.01.2021 12:15;2212;;;;;
09.01.2021 12:30;2241;;;;;
09.01.2021 12:45;2205;;;;;
09.01.2021 13:00;2173;;;;;
09.01.2021 13:15;2138;;;;;
09.01.2021 13:30;2081;;;;;
09.01.2021 13:45;2043;;;;;
09.01.2021 14:00;2009;;;;;
09.01.2021 14:15;1951;;;;;
09.01.2021 14:30;1931;;;;;
09.01.2021 14:45;1916;;;;;
09.01.2021 15:00;1911;;;;;
09.01.2021 15:15;1877;;;;;
09.01.2021 15:30;1912;;;;;
09.01.2021 15:45;1952;;;;;
09.01.2021 16:00;1968;;;;;
09.01.2021 16:15;2012;;;;;
09.01.2021 16:30;2050;;;;;
09.01.2021 16:45;2136;;;;;
09.01.2021 17:00;2306;;;;;
09.01.2021 17:15;2402;;;;;
09.01.2021 17:30;2418;;;;;
09.01.2021 17:45;2463;;;;;